Showing default

BASIL, 65301

Orbit data source: Space-Track

BASIL, 65301 is a payload satellite owned by E-Space (RW) in SSO that was launched on Sat, 23 Aug 2025 UTC via an ELECTRON launch vehicle from the Rocket Lab Launch Complex (RLLC). Payload-class satellites include a variety of spacecraft equipped with specific instruments for various scientific and technological missions. These include communications satellites like Starlink; space stations such as the ISS; scientific satellites like the Hubble; Earth observation satellites from companies like Planet Labs, Umbra, and HawkEye 360; GPS; miniature CubeSats for education and research; and military/defense satellites.

Loading next visibility...
Identifier
65301, 2025-185E
Orbit
SSO
Country
Flag of RWRW / RWA
Related business
Manufacturer
E-Space
Mission
Operational Commercial Communications
Bus & Motor
CALISTUS, Unknown motor
Mass
~30 kg wet, ~30 kg dry
Launch date (UTC)
2025-08-23 (10 months ago)
Launch vehicle
ELECTRON
Launch site
Rocket Lab Launch Complex (RLLC)
Object type
Payload
Rocket body
Debris
Shape & HBR
Box + 1 Pan, 14.5 m
Radar Cross Section
0.475 m², Large (>1 m²)

Expand to show TLE details & history
Last TLE update: 9 hours ago

TLE from 9 hours ago
0 BASIL
1 65301U 25185E   26162.79884630  .00005426  00000-0  73527-3 0  9992
2 65301  97.9657 246.2328 0015772 105.1596 255.1361 14.79254574 43048
Epoch: 2026-06-11T19:10Z
TLE epoch observation values (Epoch: 2026-06-11T19:10:20.320Z)
Latitude
-0.00002°
Longitude
58.51067°
Altitude
637.55 km
Speed
7.538 km/s
True Right ascension
16h 24m 55s
True Declination
0° 00' 00"
Sunlit
Object was in full shadow at epoch
Visualization orbit readout
Latitude
Unknown
Longitude
Unknown
Altitude
Unknown
Speed
Unknown
Apparent Right ascension
Unknown
Apparent Declination
Unknown
Sunlit
N/A
Visualization observer readout
Local Sidereal Time
14:25:45
Azimuth
Unknown
Elevation
Unknown
Doppler factor
Unknown
Orbital elements
Apogee altitude
639.774 km
Perigee altitude
617.672 km
Semi-major axis
7,006.86 km
Eccentricity
0.00158
Inclination
97.9657°
RAAN
246.2328°
Arg. of periapsis
105.1596°
True anomaly
254.9615°
Mean anomaly
255.1361°
Eccentric anomaly
255.04879°
Mean motion
3.70048 °/min
Orbital period
97.28 mins
BSTAR
0.00073527
Loading maneuver chart data...
Computing Atmospheric mass density...
Loading historical data...
Loading historical data...
Loading historical data...
Loading historical data...
Loading historical data...
Loading historical data...
Loading historical data...

Documentation

Showing up to 5 results
|